Weather History for Greybull, WY

Change the Weather History Date:

Wednesday, June 26, 2013

  Actual Average Record
Temperature  
Mean Temperature 79 °F 70 °F  
Max Temperature 93 °F 85 °F 101 °F (2012)
Min Temperature 65 °F 54 °F 46 °F (2000)
Degree Days  
Heating Degree Days 0 1  
Month to date heating degree days 36 67  
Since 1 June heating degree days 36 67  
Since 1 July heating degree days 7655 7747  
Cooling Degree Days 14 5  
Month to date cooling degree days 116 82  
Year to date cooling degree days 143 102  
Since 1 June cooling degree days 116 82  
Growing Degree Days 28 (Base 50)    
Moisture  
Dew Point 42 °F    
Average Humidity 32    
Maximum Humidity 49    
Minimum Humidity 14    
Precipitation  
Precipitation 0.00 in 0.02 in 0.19 in (2009)
Month to date precipitation 0.40 1.14  
Year to date precipitation 2.30 4.31  
Sea Level Pressure  
Sea Level Pressure 29.84 in    
Wind  
Wind Speed 7 mph (SW)    
Max Wind Speed 23 mph    
Max Gust Speed 28 mph    
Visibility 10 miles    
Events      
T = Trace of Precipitation, MM = Missing Value Source: NWS Daily Summary

Daily Weather History Graph

Daily Weather History Graph

Search for Another Location

Airport:

Trip Planner

Search our weather history database for the weather conditions in past years. The results will help you decide how hot, cold, wet, or windy it might be!

Date:

Astronomy

Jun. 26, 2013 Rise Set
Actual Time 5:29 AM MDT 9:01 PM MDT
Civil Twilight 4:52 AM MDT 9:38 PM MDT
Nautical Twilight 4:03 AM MDT 10:26 PM MDT
Astronomical Twilight 3:00 AM MDT 11:29 PM MDT
Moon 11:14 PM MDT 9:34 AM MDT
Length of Visible Light 16h 45m
Length of Day
15h 32m
Waning Gibbous, 85% of the Moon is Illuminated
Jun 26
Waning Gibbous
Jun 29
Last Quarter
Jul 8
New
Jul 15
First Quarter
Jul 22
Full

Hourly Weather History & Observations

Time (MDT) Temp. Dew Point Humidity Pressure Visibility Wind Dir Wind Speed Gust Speed Precip Events Conditions
12:53 AM 73.9 °F 41.0 °F 30% 29.79 in 10.0 mi NW 3.5 mph - N/A   Overcast
1:53 AM 73.0 °F 42.1 °F 33% 29.79 in 10.0 mi WSW 4.6 mph - N/A   Scattered Clouds
2:53 AM 70.0 °F 43.0 °F 38% 29.78 in 10.0 mi Calm Calm - N/A   Partly Cloudy
3:53 AM 70.0 °F 43.0 °F 38% 29.79 in 10.0 mi West 4.6 mph - N/A   Overcast
4:53 AM 66.0 °F 45.0 °F 47% 29.81 in 10.0 mi Calm Calm - N/A   Partly Cloudy
5:53 AM 68.0 °F 45.0 °F 43% 29.82 in 10.0 mi Calm Calm - N/A   Mostly Cloudy
6:53 AM 66.9 °F 46.9 °F 49% 29.85 in 10.0 mi SE 4.6 mph - N/A   Scattered Clouds
7:53 AM 68.0 °F 48.0 °F 49% 29.86 in 10.0 mi SSE 3.5 mph - N/A   Mostly Cloudy
8:53 AM 72.0 °F 48.0 °F 43% 29.88 in 10.0 mi South 4.6 mph - N/A   Scattered Clouds
9:53 AM 77.0 °F 45.0 °F 32% 29.87 in 10.0 mi ESE 3.5 mph - N/A   Clear
10:53 AM 79.0 °F 44.1 °F 29% 29.87 in 10.0 mi ESE 5.8 mph - N/A   Clear
11:53 AM 81.0 °F 43.0 °F 26% 29.86 in 10.0 mi SSE 4.6 mph - N/A   Clear
12:53 PM 84.0 °F 43.0 °F 24% 29.86 in 10.0 mi South 4.6 mph - N/A   Clear
1:53 PM 84.0 °F 41.0 °F 22% 29.85 in 10.0 mi South 5.8 mph - N/A   Mostly Cloudy
2:53 PM 87.1 °F 41.0 °F 20% 29.83 in 10.0 mi ESE 5.8 mph - N/A   Clear
3:53 PM 89.1 °F 42.1 °F 19% 29.82 in 10.0 mi West 5.8 mph - N/A   Scattered Clouds
4:53 PM 91.9 °F 39.0 °F 16% 29.82 in 10.0 mi West 17.3 mph 23.0 mph N/A   Mostly Cloudy
5:53 PM 91.0 °F 36.0 °F 14% 29.81 in 10.0 mi WNW 10.4 mph 24.2 mph N/A   Clear
6:53 PM 90.0 °F 35.1 °F 14% 29.82 in 10.0 mi WNW 18.4 mph - N/A   Clear
7:53 PM 89.1 °F 37.0 °F 16% 29.83 in 10.0 mi NNW 17.3 mph - N/A   Clear
8:53 PM 84.9 °F 37.0 °F 18% 29.86 in 10.0 mi NW 8.1 mph - N/A   Clear
9:53 PM 82.0 °F 39.9 °F 22% 29.89 in 10.0 mi NNW 12.7 mph - N/A   Clear
10:53 PM 77.0 °F 45.0 °F 32% 29.93 in 10.0 mi NW 13.8 mph - N/A   Clear
11:53 PM 73.9 °F 44.1 °F 34% 29.94 in 10.0 mi Variable 4.6 mph - N/A   Clear